EZY79PL EGPH-EGSS

Flight info

Callsign EZY79PL
Flight time 0h 58m
Altitude 33000
Route GOSAM P600 FENIK L612 NAVSO DCT AKOMU DCT VAMEB UL612 LISTO
Aircraft A320/M-SDE3FGHIRWY/LB1

Departure

Time 2026-04-26 18:19
Airport Edinburgh Airport (EGPH)

Arrival

Time 2026-04-26 19:17
Airport London Stansted Airport (EGSS)
Time Latitude Longitude Altitude Speed Heading
2026-04-26 17:58 55.94978 -3.35987 107 ft 0 kts 250°
2026-04-26 18:06 55.94978 -3.35988 107 ft 0 kts 250°
2026-04-26 18:07 55.94977 -3.35990 107 ft 0 kts 250°
2026-04-26 18:08 55.94982 -3.35971 106 ft 2 kts 259°
2026-04-26 18:08 55.94985 -3.35942 104 ft 2 kts 265°
2026-04-26 18:09 55.94985 -3.35913 107 ft 2 kts 282°
2026-04-26 18:09 55.94980 -3.35885 106 ft 2 kts 311°
2026-04-26 18:09 55.94967 -3.35867 107 ft 2 kts 341°
2026-04-26 18:09 55.94959 -3.35862 106 ft 0 kts 355°
2026-04-26 18:10 55.94958 -3.35861 106 ft 0 kts 358°
2026-04-26 18:12 55.94974 -3.35860 105 ft 5 kts
2026-04-26 18:12 55.95028 -3.35820 106 ft 8 kts 20°
2026-04-26 18:12 55.95067 -3.35899 106 ft 9 kts 295°
2026-04-26 18:13 55.95093 -3.35996 106 ft 9 kts 295°
2026-04-26 18:13 55.95113 -3.36098 102 ft 9 kts 286°
2026-04-26 18:13 55.95130 -3.36201 102 ft 8 kts 286°
2026-04-26 18:13 55.95135 -3.36262 104 ft 7 kts 265°
2026-04-26 18:14 55.95113 -3.36341 105 ft 3 kts 238°
2026-04-26 18:14 55.95085 -3.36425 107 ft 15 kts 239°
2026-04-26 18:14 55.95002 -3.36668 106 ft 28 kts 239°
2026-04-26 18:14 55.94901 -3.36967 104 ft 28 kts 239°
2026-04-26 18:15 55.94805 -3.37253 104 ft 26 kts 239°
2026-04-26 18:15 55.94715 -3.37518 110 ft 25 kts 239°
2026-04-26 18:15 55.94627 -3.37778 113 ft 25 kts 238°
2026-04-26 18:15 55.94534 -3.38053 112 ft 25 kts 239°
2026-04-26 18:16 55.94453 -3.38288 112 ft 16 kts 238°
2026-04-26 18:16 55.94363 -3.38552 114 ft 8 kts 239°
2026-04-26 18:16 55.94339 -3.38626 116 ft 9 kts 239°
2026-04-26 18:17 55.94283 -3.38805 118 ft 14 kts 258°
2026-04-26 18:17 55.94329 -3.38909 120 ft 12 kts 330°
2026-04-26 18:17 55.94425 -3.38944 116 ft 14 kts 51°
2026-04-26 18:17 55.94432 -3.38922 116 ft 0 kts 61°
2026-04-26 18:18 55.94465 -3.38820 117 ft 27 kts 59°
2026-04-26 18:18 55.94697 -3.38140 114 ft 99 kts 59°
2026-04-26 18:18 55.95157 -3.36787 110 ft 154 kts 58°
2026-04-26 18:19 55.95762 -3.35005 461 ft 175 kts 59°
2026-04-26 18:19 55.96448 -3.33155 1135 ft 180 kts 48°
2026-04-26 18:19 55.97388 -3.31502 1517 ft 201 kts 39°
2026-04-26 18:19 55.98508 -3.29812 1875 ft 226 kts 38°
2026-04-26 18:20 55.99857 -3.28144 2309 ft 247 kts 18°
2026-04-26 18:20 56.01581 -3.28014 2894 ft 255 kts 339°
2026-04-26 18:20 56.03007 -3.29805 3706 ft 254 kts 302°
2026-04-26 18:20 56.03491 -3.31738 4295 ft 254 kts 278°
2026-04-26 18:21 56.03282 -3.35882 5482 ft 257 kts 256°
2026-04-26 18:21 56.02796 -3.38983 5880 ft 259 kts 252°
2026-04-26 18:21 56.02252 -3.42053 6005 ft 257 kts 252°
2026-04-26 18:21 56.01717 -3.45103 6007 ft 257 kts 253°
2026-04-26 18:22 56.01208 -3.48174 6005 ft 257 kts 253°
2026-04-26 18:22 56.00727 -3.51256 6020 ft 258 kts 254°
2026-04-26 18:22 56.00266 -3.54346 6009 ft 257 kts 255°
2026-04-26 18:22 55.99817 -3.57442 6011 ft 257 kts 255°
2026-04-26 18:23 55.99375 -3.60535 6011 ft 257 kts 255°
2026-04-26 18:23 55.98929 -3.63667 6591 ft 260 kts 255°
2026-04-26 18:23 55.98481 -3.66806 7534 ft 262 kts 255°
2026-04-26 18:23 55.98033 -3.69931 8416 ft 264 kts 255°
2026-04-26 18:24 55.97574 -3.73124 9309 ft 267 kts 255°
2026-04-26 18:24 55.97111 -3.76354 10168 ft 270 kts 255°
2026-04-26 18:24 55.96633 -3.79679 10649 ft 287 kts 255°
2026-04-26 18:24 55.96114 -3.83269 10885 ft 311 kts 255°
2026-04-26 18:25 55.95550 -3.87134 11158 ft 331 kts 255°
2026-04-26 18:25 55.94962 -3.91153 11756 ft 338 kts 255°
2026-04-26 18:25 55.94362 -3.95240 12466 ft 342 kts 255°
2026-04-26 18:25 55.93576 -3.99263 13188 ft 347 kts 245°
2026-04-26 18:26 55.92264 -4.02896 13910 ft 352 kts 231°
2026-04-26 18:26 55.90458 -4.05905 14559 ft 359 kts 218°
2026-04-26 18:26 55.88389 -4.08439 15207 ft 362 kts 217°
2026-04-26 18:26 55.86302 -4.10979 15837 ft 365 kts 217°
2026-04-26 18:27 55.84201 -4.13539 16466 ft 368 kts 218°
2026-04-26 18:27 55.82080 -4.16122 17089 ft 371 kts 218°
2026-04-26 18:27 55.79946 -4.18723 17693 ft 373 kts 218°
2026-04-26 18:27 55.77794 -4.21346 18292 ft 377 kts 217°
2026-04-26 18:28 55.75470 -4.23576 18825 ft 385 kts 206°
2026-04-26 18:28 55.72908 -4.24892 19328 ft 394 kts 194°
2026-04-26 18:28 55.70142 -4.25164 19815 ft 404 kts 180°
2026-04-26 18:28 55.67346 -4.24291 20267 ft 414 kts 167°
2026-04-26 18:29 55.64635 -4.22407 20741 ft 422 kts 157°
2026-04-26 18:29 55.62045 -4.19890 21216 ft 426 kts 154°
2026-04-26 18:29 55.59453 -4.17324 21700 ft 428 kts 154°
2026-04-26 18:29 55.56837 -4.14760 22169 ft 431 kts 154°
2026-04-26 18:30 55.54206 -4.12199 22630 ft 434 kts 155°
2026-04-26 18:30 55.51551 -4.09621 23094 ft 436 kts 155°
2026-04-26 18:30 55.48881 -4.07026 23539 ft 439 kts 155°
2026-04-26 18:30 55.46193 -4.04418 23943 ft 442 kts 155°
2026-04-26 18:31 55.43493 -4.01802 24285 ft 444 kts 154°
2026-04-26 18:31 55.40783 -3.99178 24680 ft 445 kts 154°
2026-04-26 18:31 55.38062 -3.96547 25073 ft 446 kts 155°
2026-04-26 18:31 55.35336 -3.93913 25463 ft 448 kts 155°
2026-04-26 18:32 55.32600 -3.91273 25843 ft 449 kts 155°
2026-04-26 18:32 55.29856 -3.88634 26224 ft 450 kts 155°
2026-04-26 18:32 55.27139 -3.86027 26602 ft 451 kts 156°
2026-04-26 18:32 55.24381 -3.83384 26962 ft 453 kts 156°
2026-04-26 18:33 55.21609 -3.80740 27309 ft 454 kts 156°
2026-04-26 18:33 55.18806 -3.78188 27630 ft 454 kts 158°
2026-04-26 18:33 55.15969 -3.75727 27960 ft 455 kts 159°
2026-04-26 18:33 55.13116 -3.73322 28301 ft 456 kts 159°
2026-04-26 18:34 55.10250 -3.70932 28634 ft 457 kts 159°
2026-04-26 18:34 55.07372 -3.68526 28952 ft 458 kts 159°
2026-04-26 18:34 55.04502 -3.66102 29310 ft 458 kts 159°
2026-04-26 18:34 55.01644 -3.63667 29791 ft 456 kts 159°
2026-04-26 18:35 54.98802 -3.61236 30267 ft 454 kts 159°
2026-04-26 18:35 54.95970 -3.58815 30659 ft 452 kts 160°
2026-04-26 18:35 54.93149 -3.56407 30988 ft 451 kts 159°
2026-04-26 18:35 54.90333 -3.54012 31341 ft 450 kts 159°
2026-04-26 18:36 54.87521 -3.51628 31684 ft 449 kts 159°
2026-04-26 18:36 54.84742 -3.49277 32020 ft 449 kts 160°
2026-04-26 18:36 54.81935 -3.46906 32353 ft 448 kts 160°
2026-04-26 18:36 54.79132 -3.44544 32692 ft 448 kts 160°
2026-04-26 18:37 54.76326 -3.42185 33026 ft 447 kts 160°
2026-04-26 18:37 54.73519 -3.39829 33235 ft 448 kts 160°
2026-04-26 18:37 54.67897 -3.35115 33265 ft 448 kts 160°
2026-04-26 18:38 54.62322 -3.30450 33265 ft 448 kts 160°
2026-04-26 18:38 54.56710 -3.25763 33265 ft 448 kts 160°
2026-04-26 18:39 54.51097 -3.21096 33258 ft 448 kts 160°
2026-04-26 18:39 54.45468 -3.16424 33245 ft 450 kts 160°
2026-04-26 18:40 54.39831 -3.11775 33250 ft 449 kts 160°
2026-04-26 18:40 54.34197 -3.07142 33258 ft 449 kts 160°
2026-04-26 18:41 54.28556 -3.02518 33259 ft 449 kts 160°
2026-04-26 18:41 54.22921 -2.97911 33262 ft 449 kts 160°
2026-04-26 18:42 54.17325 -2.93345 33247 ft 449 kts 160°
2026-04-26 18:42 54.11646 -2.88986 33256 ft 447 kts 162°
2026-04-26 18:43 54.05910 -2.84893 33259 ft 446 kts 163°
2026-04-26 18:43 54.00171 -2.80837 33261 ft 446 kts 162°
2026-04-26 18:44 53.94452 -2.76716 33249 ft 446 kts 162°
2026-04-26 18:44 53.88784 -2.72584 33269 ft 445 kts 162°
2026-04-26 18:45 53.83079 -2.68462 33272 ft 445 kts 162°
2026-04-26 18:45 53.77384 -2.64368 33265 ft 444 kts 162°
2026-04-26 18:46 53.71730 -2.60324 33268 ft 444 kts 162°
2026-04-26 18:46 53.66016 -2.56245 33248 ft 447 kts 162°
2026-04-26 18:47 53.60286 -2.52171 33252 ft 447 kts 162°
2026-04-26 18:47 53.54551 -2.48105 33253 ft 447 kts 162°
2026-04-26 18:48 53.48814 -2.44058 33252 ft 446 kts 162°
2026-04-26 18:48 53.43084 -2.40029 33255 ft 446 kts 162°
2026-04-26 18:49 53.37388 -2.36021 33256 ft 446 kts 162°
2026-04-26 18:49 53.31664 -2.31993 33257 ft 446 kts 162°
2026-04-26 18:50 53.25939 -2.27996 33256 ft 446 kts 162°
2026-04-26 18:50 53.20204 -2.24000 33243 ft 446 kts 162°
2026-04-26 18:51 53.14515 -2.19801 33247 ft 451 kts 155°
2026-04-26 18:51 53.09326 -2.13792 33250 ft 456 kts 149°
2026-04-26 18:52 53.04241 -2.07593 33253 ft 456 kts 149°
2026-04-26 18:52 52.99111 -2.01385 33235 ft 456 kts 149°
2026-04-26 18:53 52.93952 -1.95146 33255 ft 459 kts 148°
2026-04-26 18:53 52.88794 -1.88906 33253 ft 459 kts 148°
2026-04-26 18:54 52.83627 -1.82678 33260 ft 459 kts 149°
2026-04-26 18:54 52.78455 -1.76476 33259 ft 459 kts 149°
2026-04-26 18:55 52.73157 -1.70643 33224 ft 453 kts 157°
2026-04-26 18:55 52.67604 -1.65889 32401 ft 455 kts 157°
2026-04-26 18:56 52.64757 -1.63450 31065 ft 467 kts 157°
2026-04-26 18:56 52.61812 -1.60926 30020 ft 472 kts 157°
2026-04-26 18:56 52.58947 -1.58463 29250 ft 469 kts 156°
2026-04-26 18:56 52.56056 -1.55973 28510 ft 469 kts 156°
2026-04-26 18:57 52.53160 -1.53483 27795 ft 470 kts 156°
2026-04-26 18:57 52.52181 -1.52643 27565 ft 470 kts 156°
2026-04-26 18:57 52.47367 -1.48527 26465 ft 467 kts 156°
2026-04-26 18:57 52.44482 -1.46076 25822 ft 465 kts 156°
2026-04-26 18:58 52.41616 -1.43651 25192 ft 461 kts 156°
2026-04-26 18:58 52.38777 -1.41250 24573 ft 456 kts 155°
2026-04-26 18:58 52.35969 -1.38874 23975 ft 452 kts 155°
2026-04-26 18:58 52.33187 -1.36522 23286 ft 448 kts 155°
2026-04-26 18:59 52.30431 -1.34200 22591 ft 443 kts 155°
2026-04-26 18:59 52.27751 -1.31888 21910 ft 440 kts 154°
2026-04-26 18:59 52.25094 -1.29450 21232 ft 436 kts 153°
2026-04-26 18:59 52.22487 -1.26958 20583 ft 433 kts 152°
2026-04-26 19:00 52.19912 -1.24455 19930 ft 429 kts 152°
2026-04-26 19:00 52.17360 -1.21981 19317 ft 425 kts 152°
2026-04-26 19:00 52.14824 -1.19551 18707 ft 422 kts 152°
2026-04-26 19:00 52.12297 -1.17156 18027 ft 418 kts 152°
2026-04-26 19:01 52.09781 -1.14799 17333 ft 415 kts 152°
2026-04-26 19:01 52.07284 -1.12476 16661 ft 412 kts 152°
2026-04-26 19:01 52.04819 -1.10141 16004 ft 409 kts 149°
2026-04-26 19:01 52.02651 -1.07156 15447 ft 408 kts 133°
2026-04-26 19:02 52.01064 -1.03507 15263 ft 396 kts 119°
2026-04-26 19:02 52.00067 -0.99445 15264 ft 380 kts 106°
2026-04-26 19:02 51.99668 -0.95306 15199 ft 366 kts 93°
2026-04-26 19:02 51.99651 -0.93912 15075 ft 364 kts 91°
2026-04-26 19:03 51.99648 -0.87090 14279 ft 362 kts 91°
2026-04-26 19:03 51.99655 -0.83011 13772 ft 361 kts 91°
2026-04-26 19:03 51.99660 -0.78946 13240 ft 359 kts 91°
2026-04-26 19:03 51.99662 -0.74900 12725 ft 358 kts 91°
2026-04-26 19:04 51.99660 -0.70880 12237 ft 355 kts 91°
2026-04-26 19:04 51.99656 -0.68232 11969 ft 351 kts 91°
2026-04-26 19:04 51.99648 -0.64298 11569 ft 347 kts 91°
2026-04-26 19:04 51.99640 -0.60411 11172 ft 342 kts 91°
2026-04-26 19:05 51.99620 -0.52781 10398 ft 335 kts 90°
2026-04-26 19:05 51.99606 -0.49031 9994 ft 328 kts 91°
2026-04-26 19:05 51.99591 -0.45425 9622 ft 311 kts 90°
2026-04-26 19:06 51.99577 -0.42013 9308 ft 294 kts 90°
2026-04-26 19:06 51.99566 -0.38775 8997 ft 280 kts 91°
2026-04-26 19:06 51.99542 -0.35686 8688 ft 267 kts 91°
2026-04-26 19:06 51.99460 -0.32749 8381 ft 256 kts 102°
2026-04-26 19:07 51.98736 -0.30189 8081 ft 250 kts 133°
2026-04-26 19:07 51.97436 -0.28343 7780 ft 248 kts 144°
2026-04-26 19:07 51.96069 -0.26759 7488 ft 240 kts 146°
2026-04-26 19:07 51.94730 -0.25247 7191 ft 229 kts 146°
2026-04-26 19:08 51.93437 -0.23801 6899 ft 223 kts 146°
2026-04-26 19:08 51.92156 -0.22388 6646 ft 223 kts 146°
2026-04-26 19:08 51.90867 -0.20977 6361 ft 223 kts 146°
2026-04-26 19:08 51.89578 -0.19566 6070 ft 224 kts 146°
2026-04-26 19:09 51.88290 -0.18156 5791 ft 224 kts 146°
2026-04-26 19:09 51.87000 -0.16746 5512 ft 222 kts 146°
2026-04-26 19:09 51.85729 -0.15360 5232 ft 218 kts 146°
2026-04-26 19:09 51.84507 -0.14028 4955 ft 212 kts 146°
2026-04-26 19:10 51.83301 -0.12715 4664 ft 207 kts 146°
2026-04-26 19:10 51.82120 -0.11424 4380 ft 203 kts 146°
2026-04-26 19:10 51.80964 -0.10161 4099 ft 199 kts 146°
2026-04-26 19:10 51.79831 -0.08919 3823 ft 195 kts 146°
2026-04-26 19:11 51.78716 -0.07696 3563 ft 191 kts 146°
2026-04-26 19:11 51.77617 -0.06494 3392 ft 190 kts 146°
2026-04-26 19:11 51.76519 -0.05296 3212 ft 190 kts 146°
2026-04-26 19:11 51.75436 -0.04086 3041 ft 189 kts 139°
2026-04-26 19:12 51.74706 -0.02386 2923 ft 181 kts 107°
2026-04-26 19:12 51.74630 -0.00471 2877 ft 171 kts 76°
2026-04-26 19:12 51.75117 0.01223 2832 ft 165 kts 56°
2026-04-26 19:12 51.75730 0.02783 2805 ft 164 kts 57°
2026-04-26 19:13 51.76337 0.04342 2792 ft 164 kts 57°
2026-04-26 19:13 51.76941 0.05894 2755 ft 163 kts 57°
2026-04-26 19:13 51.77670 0.07285 2720 ft 162 kts 41°
2026-04-26 19:13 51.78500 0.08518 2658 ft 162 kts 43°
2026-04-26 19:14 51.79329 0.09763 2563 ft 162 kts 43°
2026-04-26 19:14 51.80160 0.11005 2388 ft 162 kts 43°
2026-04-26 19:14 51.80975 0.12223 2189 ft 161 kts 43°
2026-04-26 19:14 51.81534 0.13057 2045 ft 162 kts 43°
2026-04-26 19:15 51.82596 0.14642 1755 ft 154 kts 43°
2026-04-26 19:15 51.83375 0.15807 1547 ft 152 kts 44°
2026-04-26 19:15 51.84145 0.16958 1336 ft 151 kts 45°
2026-04-26 19:15 51.84914 0.18108 1125 ft 150 kts 46°
2026-04-26 19:16 51.85681 0.19256 927 ft 149 kts 45°
2026-04-26 19:16 51.86441 0.20393 723 ft 148 kts 47°
2026-04-26 19:16 51.87200 0.21529 522 ft 147 kts 47°
2026-04-26 19:16 51.87948 0.22664 348 ft 146 kts 44°
2026-04-26 19:17 51.88672 0.23753 339 ft 127 kts 43°
2026-04-26 19:17 51.89160 0.24463 348 ft 54 kts 41°
2026-04-26 19:17 51.89240 0.24711 347 ft 18 kts 107°
2026-04-26 19:17 51.89194 0.24818 351 ft 0 kts 133°
2026-04-26 19:19 51.89193 0.24820 352 ft 2 kts 133°
2026-04-26 19:19 51.89155 0.24902 348 ft 10 kts 105°
2026-04-26 19:19 51.89155 0.24920 351 ft 5 kts 83°
2026-04-26 19:20 51.89202 0.25020 355 ft 13 kts 46°
2026-04-26 19:20 51.89227 0.25074 356 ft 8 kts 54°
2026-04-26 19:20 51.89236 0.25097 357 ft 0 kts 60°
2026-04-26 19:21 51.89242 0.25131 354 ft 7 kts 84°
2026-04-26 19:21 51.89202 0.25237 357 ft 13 kts 130°
2026-04-26 19:21 51.89164 0.25352 355 ft 12 kts 123°
2026-04-26 19:21 51.89101 0.25462 360 ft 14 kts 135°
2026-04-26 19:22 51.89029 0.25585 355 ft 16 kts 131°
2026-04-26 19:22 51.89017 0.25681 359 ft 8 kts 48°
2026-04-26 19:22 51.89026 0.25696 357 ft 0 kts 44°
2026-04-26 19:22 51.89031 0.25703 358 ft 0 kts 45°